Jerome, ID

10:19 PM MDT on March 24, 2017 (GMT -0600)
Jerome County

Weather History for KJER - May, 2013

Change the Weather History Date:

Wednesday, May 8, 2013

  Actual Average Record
Temperature  
Mean Temperature 61 °F 52 °F  
Max Temperature 76 °F 65 °F 91 °F (1992)
Min Temperature 46 °F 40 °F 25 °F (2002)
Degree Days  
Heating Degree Days 4 13  
Month to date heating degree days 85 109  
Since 1 July heating degree days 6006 6312  
Cooling Degree Days 0 0  
Month to date cooling degree days 0 0  
Year to date cooling degree days 0 0  
Growing Degree Days 10 (Base 50)    
Moisture  
Dew Point 42 °F    
Average Humidity 55    
Maximum Humidity 82    
Minimum Humidity 27    
Precipitation  
Precipitation T in 0.05 in 0.25 in (1979)
Month to date precipitation T 0.41  
Year to date precipitation 2.20 4.77  
Sea Level Pressure  
Sea Level Pressure 29.98 in    
Wind  
Wind Speed 7 mph (East)    
Max Wind Speed 17 mph    
Max Gust Speed 28 mph    
Visibility 10 miles    
Events Thunderstorm    
T = Trace of Precipitation, MM = Missing Value Source: NWS Daily Summary

Daily Weather History Graph

Daily Weather History Graph

Search for Another Location

Airport or City:

Trip Planner

Search our weather history database for the weather conditions in past years. The results will help you decide how hot, cold, wet, or windy it might be!

Date:

Astronomy

May. 08, 2013 Rise Set
Actual Time 6:22 AM MDT 8:46 PM MDT
Civil Twilight 5:51 AM MDT 9:18 PM MDT
Nautical Twilight 5:11 AM MDT 9:57 PM MDT
Astronomical Twilight 4:28 AM MDT 10:41 PM MDT
Moon 5:35 AM MDT (5/8) 7:47 PM MDT (5/8)
Length of Visible Light 15h 27m
Length of Day
14h 23m
Waning Crescent, 2% of the Moon is Illuminated
May 8
Waning Crescent
May 9
New
May 17
First Quarter
May 24
Full
May 31
Last Quarter

Hourly Weather History & Observations

Time (MDT) Temp. Windchill Dew Point Humidity Pressure Visibility Wind Dir Wind Speed Gust Speed Precip Events Conditions
12:53 AM 52.0 °F - 42.1 °F 69% 29.93 in 10.0 mi NE 9.2 mph - N/A   Overcast
1:53 AM 51.1 °F - 42.1 °F 71% 29.94 in 10.0 mi ENE 11.5 mph - N/A   Partly Cloudy
2:53 AM 50.0 °F - 42.1 °F 74% 29.93 in 10.0 mi East 11.5 mph - N/A   Scattered Clouds
3:53 AM 48.9 °F - 42.1 °F 77% 29.92 in 10.0 mi NE 8.1 mph - N/A   Mostly Cloudy
4:53 AM 48.9 °F - 42.1 °F 77% 29.94 in 10.0 mi NE 10.4 mph - N/A   Overcast
5:53 AM 48.9 °F - 42.1 °F 77% 29.95 in 10.0 mi East 5.8 mph - N/A   Overcast
6:53 AM 46.0 °F 42.5 °F 41.0 °F 83% 29.98 in 10.0 mi East 6.9 mph - N/A   Mostly Cloudy
7:53 AM 50.0 °F - 43.0 °F 77% 29.99 in 10.0 mi East 6.9 mph - N/A   Overcast
8:53 AM 53.1 °F - 44.1 °F 71% 30.01 in 10.0 mi ENE 4.6 mph - N/A   Scattered Clouds
9:53 AM 57.0 °F - 44.1 °F 62% 30.02 in 10.0 mi North 4.6 mph - N/A   Clear
10:53 AM 62.1 °F - 43.0 °F 50% 30.01 in 10.0 mi Variable 3.5 mph - N/A   Clear
11:53 AM 66.0 °F - 43.0 °F 43% 30.00 in 10.0 mi Calm Calm - N/A   Clear
12:53 PM 69.1 °F - 39.0 °F 33% 29.99 in 10.0 mi NNE 8.1 mph - N/A   Scattered Clouds
1:53 PM 72.0 °F - 37.9 °F 29% 29.95 in 10.0 mi ENE 10.4 mph - N/A   Clear
2:53 PM 73.0 °F - 39.0 °F 29% 29.93 in 10.0 mi NE 9.2 mph 17.3 mph N/A   Mostly Cloudy
3:53 PM 73.9 °F - 37.0 °F 26% 29.92 in 10.0 mi NW 5.8 mph - N/A   Mostly Cloudy
4:45 PM 71.6 °F - 39.2 °F 31% 29.99 in 10.0 mi South 9.2 mph - N/A Thunderstorm Scattered Clouds
4:53 PM 71.1 °F - 41.0 °F 34% 29.93 in 10.0 mi South 8.1 mph - N/A Thunderstorm Scattered Clouds
5:02 PM 71.6 °F - 41.0 °F 33% 30.00 in 10.0 mi SSE 10.4 mph - N/A   Scattered Clouds
5:19 PM 69.8 °F - 42.8 °F 38% 30.00 in 10.0 mi South 9.2 mph - N/A Thunderstorm Scattered Clouds
5:34 PM 69.8 °F - 42.8 °F 38% 30.00 in 10.0 mi South 8.1 mph - N/A   Mostly Cloudy
5:44 PM 69.8 °F - 42.8 °F 38% 30.00 in 10.0 mi South 6.9 mph - N/A Thunderstorm Thunderstorm
5:53 PM 69.1 °F - 44.1 °F 40% 29.95 in 10.0 mi SSW 4.6 mph - N/A Thunderstorm Thunderstorm
6:53 PM 62.1 °F - 41.0 °F 46% 30.00 in 10.0 mi West 9.2 mph 18.4 mph 0.00 in Thunderstorm Mostly Cloudy
7:02 PM 60.8 °F - 44.6 °F 55% 30.04 in 10.0 mi West 8.1 mph - N/A   Partly Cloudy
7:53 PM 59.0 °F - 43.0 °F 55% 30.01 in 10.0 mi Calm Calm - N/A   Clear
8:53 PM 53.1 °F - 43.0 °F 69% 30.02 in 10.0 mi NE 6.9 mph - N/A   Clear
9:53 PM 55.0 °F - 41.0 °F 59% 30.03 in 10.0 mi Calm Calm - N/A   Clear
10:53 PM 51.1 °F - 42.1 °F 71% 30.04 in 10.0 mi ENE 8.1 mph - N/A   Clear
11:53 PM 50.0 °F - 41.0 °F 71% 30.04 in 10.0 mi ESE 8.1 mph - N/A   Clear